Juliana Airport, Sint Maarten

1:50 PM AST on November 24, 2017 (GMT -0400)
Princess Juliana International

Weather History for TNCM - January, 2013

Change the Weather History Date:

Monday, January 28, 2013

  Actual Average Record
Temperature  
Mean Temperature 79 °F -  
Max Temperature 84 °F 81 °F 86 °F (2001)
Min Temperature 74 °F 72 °F 69 °F (2006)
Cooling Degree Days 14    
Growing Degree Days 29 (Base 50)    
Moisture  
Dew Point 69 °F    
Average Humidity 71    
Maximum Humidity 89    
Minimum Humidity 53    
Precipitation  
Precipitation 0.02 in 0.06 in - ()
Sea Level Pressure  
Sea Level Pressure 30.10 in    
Wind  
Wind Speed 9 mph ()    
Max Wind Speed 16 mph    
Max Gust Speed -    
Visibility 7.2 miles    
Events Rain    
Averages and records for this station are not official NWS values.
T = Trace of Precipitation, MM = Missing Value Source: Averaged Metar Reports

Daily Weather History Graph

Daily Weather History Graph

Search for Another Location

Airport or City:

Trip Planner

Search our weather history database for the weather conditions in past years. The results will help you decide how hot, cold, wet, or windy it might be!

Date:

Astronomy

Jan. 28, 2013 Rise Set
Actual Time 6:46 AM AST 6:04 PM AST
Civil Twilight 6:23 AM AST 6:27 PM AST
Nautical Twilight 5:57 AM AST 6:54 PM AST
Astronomical Twilight 5:30 AM AST 7:20 PM AST
Moon 7:31 PM AST (1/28) 7:28 AM AST (1/28)
Length of Visible Light 12h 04m
Length of Day
11h 18m
Full, 98% of the Moon is Illuminated
Jan 28
Full
Feb 3
Last Quarter
Feb 10
New
Feb 17
First Quarter
Feb 25
Full

Hourly Weather History & Observations

Time (AST) Temp. Heat Index Dew Point Humidity Pressure Visibility Wind Dir Wind Speed Gust Speed Precip Events Conditions
12:00 AM 77.0 °F - 69.8 °F 78% 30.09 in 6.2 mi East 9.2 mph - N/A   Scattered Clouds
1:00 AM 77.0 °F - 69.8 °F 78% 30.09 in 6.2 mi ESE 5.8 mph - N/A   Mostly Cloudy
2:00 AM 76 °F - 70 °F 76% 30.10 in 19 mi ENE 2.3 mph - -   Partly Cloudy
2:00 AM 77.0 °F - 69.8 °F 78% 30.09 in 6.2 mi ENE 2.3 mph - N/A   Partly Cloudy
3:00 AM 77.0 °F - 69.8 °F 78% 30.06 in 6.2 mi NE 4.6 mph - N/A   Partly Cloudy
4:00 AM 77.0 °F - 69.8 °F 78% 30.06 in 6.2 mi NE 4.6 mph - N/A   Scattered Clouds
5:00 AM 75 °F - 71 °F 83% 30.08 in 19 mi NE 8.1 mph - - Rain Light Rain Showers
5:00 AM 75.2 °F - 71.6 °F 89% 30.06 in 6.2 mi NE 8.1 mph - N/A   Mostly Cloudy
6:00 AM 75.2 °F - 71.6 °F 89% 30.09 in 6.2 mi NNE 5.8 mph - N/A Rain Light Rain Showers
7:00 AM 77.0 °F - 69.8 °F 78% 30.09 in 6.2 mi East 10.4 mph - N/A   Scattered Clouds
8:00 AM 78 °F - 68 °F 65% 30.14 in 22 mi East 10.4 mph - -   Partly Cloudy
8:00 AM 78.8 °F - 68.0 °F 69% 30.12 in 6.2 mi East 10.4 mph - N/A   Partly Cloudy
9:00 AM 78.8 °F - 69.8 °F 74% 30.15 in 6.2 mi East 13.8 mph - N/A   Scattered Clouds
10:00 AM 78.8 °F - 69.8 °F 74% 30.15 in 6.2 mi East 13.8 mph - N/A   Scattered Clouds
11:00 AM 83 °F - 69 °F 53% 30.17 in 28 mi East 15.0 mph - - Rain Light Rain Showers
11:00 AM 82.4 °F 85.4 °F 68.0 °F 62% 30.15 in 6.2 mi East 15.0 mph - N/A   Scattered Clouds
12:00 PM 82.4 °F 85.4 °F 68.0 °F 62% 30.15 in 6.2 mi East 15.0 mph - N/A   Scattered Clouds
1:00 PM 82.4 °F 85.4 °F 68.0 °F 62% 30.12 in 6.2 mi East 15.0 mph - N/A   Scattered Clouds
2:00 PM 83 °F - 69 °F 55% 30.11 in 28 mi ESE 11.5 mph - -   Partly Cloudy
2:00 PM 82.4 °F 86.3 °F 69.8 °F 66% 30.09 in 6.2 mi East 11.5 mph - N/A   Scattered Clouds
3:00 PM 82.4 °F 85.4 °F 68.0 °F 62% 30.06 in 6.2 mi East 16.1 mph - N/A   Scattered Clouds
4:00 PM 82.4 °F 85.4 °F 68.0 °F 62% 30.06 in 6.2 mi East 13.8 mph - N/A   Partly Cloudy
5:00 PM 81 °F - 69 °F 58% 30.09 in 28 mi East 12.7 mph - -   Partly Cloudy
5:00 PM 80.6 °F 83.2 °F 68.0 °F 65% 30.06 in 6.2 mi ENE 12.7 mph - N/A   Partly Cloudy
6:00 PM 78.8 °F - 68.0 °F 69% 30.09 in 6.2 mi ENE 15.0 mph - N/A   Partly Cloudy
7:00 PM 78.8 °F - 68.0 °F 69% 30.09 in 6.2 mi ENE 13.8 mph - N/A   Partly Cloudy
8:00 PM 78 °F - 68 °F 65% 30.12 in 28 mi East 13.8 mph - -   Partly Cloudy
8:00 PM 77.0 °F - 68.0 °F 74% 30.12 in 6.2 mi ENE 12.7 mph - N/A   Partly Cloudy
9:00 PM 77.0 °F - 69.8 °F 78% 30.12 in 6.2 mi East 13.8 mph - N/A   Partly Cloudy
10:00 PM 77.0 °F - 68.0 °F 74% 30.12 in 6.2 mi East 12.7 mph - N/A   Partly Cloudy
11:00 PM 77 °F - 69 °F 68% 30.13 in 22 mi ENE 11.5 mph - -   Partly Cloudy
11:00 PM 77.0 °F - 68.0 °F 74% 30.12 in 6.2 mi ENE 10.4 mph - N/A   Partly Cloudy